Regional Weather Roundup
Issued by NWS Charleston, WV

Home | Current Version | Previous Version | Graphics & Text | Print | Product List | Glossary On
Versions: 1 2 3 4 5 6 7 8 9 10 11 12 13 14 15 16 17 18 19 20 21 22 23 24 25 26 27 28 29 30 31 32 33 34 35 36 37 38 39 40 41 42 43 44 45 46 47 48 49 50
546
ASUS41 KRLX 111210
RWRRLX
West Virginia Regional Weather Roundup
National Weather Service Charleston WV
700 AM EST THU FEB 11 2016

Note: "fair" indicates few or no clouds below 12,000 feet with no
significant weather and/or obstructions to visibility.

WVZ003-111300-
Northern Panhandle of West Virginia

CITY           SKY/WX    TMP DP  RH WIND       PRES   REMARKS
WHEELING         N/A     10   4  76 W9G18     30.06R WCI  -3
$$

WVZ009-111300-
Northwest West Virginia

CITY           SKY/WX    TMP DP  RH WIND       PRES   REMARKS
PARKERSBURG      N/A     10   3  73 W9        30.20R WCI  -3
$$

WVZ006-111300-
Western West Virginia

CITY           SKY/WX    TMP DP  RH WIND       PRES   REMARKS
HUNTINGTON     CLOUDY    16   6  65 W7        30.20R WCI   6
$$

WVZ015-111300-
West Central West Virginia

CITY           SKY/WX    TMP DP  RH WIND       PRES   REMARKS
CHARLESTON     MOCLDY    16   4  59 W8        30.18R WCI   5
$$

WVZ022-031-111300-
North Central West Virginia

CITY           SKY/WX    TMP DP  RH WIND       PRES   REMARKS
CLARKSBURG     FLURRIES  12   6  77 W7        30.10R WCI   1
MORGANTOWN     CLOUDY    12   3  67 VRB5      30.08R WCI   4
$$

WVZ025-035-042-045-111300-
Southern West Virginia

CITY           SKY/WX    TMP DP  RH WIND       PRES   REMARKS
BECKLEY        CLOUDY    10   3  73 NW7       30.02R WCI  -1
LOGAN          CLOUDY    14   5  67 VRB5G12   30.12R WCI   6
BLUEFIELD      LGT SNOW   9   4  80 W9        30.00R WCI  -4
LEWISBURG        N/A     13   4  66 NW10G18   30.01R WCI   0
$$

WVZ047-111300-
Northern Mountains of West Virginia

CITY           SKY/WX    TMP DP  RH WIND       PRES   REMARKS
ELKINS         LGT SNOW  10   1  67 W15G23    30.03R WCI  -7
$$

WVZ052-111300-
Eastern Panhandle of West Virginia

CITY           SKY/WX    TMP DP  RH WIND       PRES   REMARKS
MARTINSBURG    MOCLDY    16   2  54 W10G17    30.03R WCI   4
PETERSBURG     MOCLDY    17   2  52 W16G22    30.04R WCI   2
$$




USA.gov is the U.S. government's official web portal to all federal, state and local government web resources and services.